Papa, Hungary

3:41 PM CEST on August 16, 2017 (GMT +0200)
Papa

Weather History for LHPA - March, 2013

Change the Weather History Date:

Thursday, March 21, 2013

  Actual Average Record
Temperature  
Mean Temperature 42 °F -  
Max Temperature 50 °F - - ()
Min Temperature 35 °F - - ()
Degree Days  
Heating Degree Days 22    
Moisture  
Dew Point 35 °F    
Average Humidity 73    
Maximum Humidity 93    
Minimum Humidity 57    
Precipitation  
Precipitation 0.00 in - - ()
Sea Level Pressure  
Sea Level Pressure 29.82 in    
Wind  
Wind Speed 15 mph ()    
Max Wind Speed 34 mph    
Max Gust Speed 52 mph    
Visibility 5.8 miles    
Events Rain    
T = Trace of Precipitation, MM = Missing Value Source: Averaged Metar Reports

Daily Weather History Graph

Daily Weather History Graph

Search for Another Location

Airport or City:

Trip Planner

Search our weather history database for the weather conditions in past years. The results will help you decide how hot, cold, wet, or windy it might be!

Date:

Astronomy

Mar. 21, 2013 Rise Set
Actual Time 5:51 AM CET 6:04 PM CET
Civil Twilight 5:20 AM CET 6:34 PM CET
Nautical Twilight 4:44 AM CET 7:10 PM CET
Astronomical Twilight 4:07 AM CET 7:47 PM CET
Moon 11:57 AM CET (3/21) 2:21 AM CET (3/21)
Length of Visible Light 13h 14m
Length of Day
12h 13m
Waxing Gibbous, 66% of the Moon is Illuminated
Mar 21
Waxing Gibbous
Mar 27
Full
Apr 3
Last Quarter
Apr 10
New
Apr 18
First Quarter

Hourly Weather History & Observations

Time (CET) Temp. Windchill Dew Point Humidity Pressure Visibility Wind Dir Wind Speed Gust Speed Precip Events Conditions
12:10 AM 50.0 °F - 37.4 °F 62% 29.74 in 6.2 mi South 8.9 mph - N/A Rain Light Rain
12:15 AM 50.0 °F - 39.2 °F 66% 29.74 in 6.2 mi SSE 11.2 mph - N/A Rain Light Rain
12:45 AM 46.4 °F 42.0 °F 41.0 °F 81% 29.74 in 6.2 mi SSE 8.9 mph - N/A Rain Light Rain
1:15 AM 46.4 °F 42.0 °F 41.0 °F 81% 29.74 in 6.2 mi SE 8.9 mph - N/A Rain Light Rain
1:45 AM 46.4 °F 42.0 °F 42.8 °F 87% 29.74 in 6.2 mi WSW 8.9 mph - N/A Rain Light Rain
2:15 AM 46.4 °F 41.2 °F 39.2 °F 76% 29.74 in 6.2 mi NW 11.2 mph - N/A Rain Light Rain
2:45 AM 44.6 °F 38.2 °F 39.2 °F 81% 29.74 in 6.2 mi NW 13.4 mph - N/A Rain Light Rain
3:15 AM 44.6 °F 38.2 °F 37.4 °F 76% 29.74 in 6.2 mi NW 13.4 mph - N/A Rain Light Rain
3:45 AM 44.6 °F 37.6 °F 37.4 °F 76% 29.74 in 6.2 mi NW 15.7 mph - N/A Rain Light Rain
4:15 AM 42.8 °F 35.2 °F 37.4 °F 81% 29.74 in 6.2 mi NW 15.7 mph - N/A Rain Light Rain
5:15 AM 42.8 °F 35.9 °F 39.2 °F 87% 29.77 in 6.2 mi NW 13.4 mph - N/A Rain Light Rain
5:45 AM - - - N/A% - 6.2 mi NNW 15.7 mph 26.8 mph N/A   Overcast
6:15 AM 41.0 °F 31.8 °F 39.2 °F 93% 29.77 in 6.2 mi NNW 20.1 mph - N/A Rain Light Rain
6:23 AM 41.0 °F 31.8 °F 39.2 °F 93% 29.77 in 6.2 mi NNW 20.1 mph - N/A Rain Light Rain
6:45 AM 41.0 °F 31.8 °F 39.2 °F 93% 29.77 in 6.2 mi NNW 20.1 mph - N/A Rain Light Rain
7:15 AM 41.0 °F 32.9 °F 39.2 °F 93% 29.80 in 5.0 mi NNW 15.7 mph 26.8 mph N/A Rain Light Rain
7:45 AM 41.0 °F 33.6 °F 39.2 °F 93% 29.80 in 5.0 mi North 13.4 mph 26.8 mph N/A Rain Light Rain
8:15 AM 42.8 °F 36.7 °F 39.2 °F 87% 29.80 in 5.0 mi North 11.2 mph - N/A Rain Light Rain
8:45 AM - - - N/A% - 6.2 mi North 15.7 mph - N/A   Overcast
9:15 AM 42.8 °F 37.6 °F 39.2 °F 87% 29.80 in 5.0 mi North 8.9 mph - N/A Rain Light Rain
9:45 AM 44.6 °F 39.8 °F 41.0 °F 87% 29.80 in 5.0 mi North 8.9 mph - N/A Rain Light Rain
10:13 AM 44.6 °F 37.6 °F 39.2 °F 81% 29.80 in 5.0 mi North 15.7 mph 26.8 mph N/A   Overcast
10:15 AM 44.6 °F 37.6 °F 39.2 °F 81% 29.80 in 5.0 mi NNW 15.7 mph 26.8 mph N/A   Overcast
10:23 AM - - - N/A% - 6.2 mi North 15.7 mph - N/A   Overcast
10:45 AM 44.6 °F 36.0 °F 37.4 °F 76% 29.80 in 5.0 mi NNW 22.4 mph - N/A   Overcast
11:15 AM 46.4 °F 39.3 °F 39.2 °F 76% 29.80 in 5.0 mi North 17.9 mph 29.1 mph N/A   Overcast
11:45 AM - - - N/A% - 6.2 mi North 17.9 mph - N/A   Mostly Cloudy
12:15 PM 48.2 °F - 37.4 °F 66% 29.80 in 6.2 mi West 15.7 mph 26.8 mph N/A   Overcast
12:45 PM 46.4 °F 38.4 °F 37.4 °F 71% 29.80 in 6.2 mi North 22.4 mph 35.8 mph N/A   Overcast
12:48 PM 46.4 °F 37.7 °F 37.4 °F 71% 29.80 in 6.2 mi North 26.8 mph 38.0 mph N/A   Overcast
1:15 PM 46.4 °F 37.7 °F 39.2 °F 76% 29.80 in 6.2 mi NNW 26.8 mph 38.0 mph N/A   Overcast
1:45 PM 46.4 °F 37.0 °F 33.8 °F 62% 29.80 in 6.2 mi North 31.3 mph 44.7 mph N/A   Overcast
1:56 PM 44.6 °F 34.2 °F 33.8 °F 66% 29.83 in 6.2 mi NNW 33.6 mph 51.5 mph N/A   Overcast
2:00 PM - - - N/A% - 6.2 mi North 20.1 mph - N/A   Overcast
2:15 PM 44.6 °F 34.5 °F 33.8 °F 66% 29.83 in 6.2 mi NNW 31.3 mph 51.5 mph N/A   Overcast
2:45 PM - - - N/A% - 6.2 mi NNW 17.9 mph 29.1 mph N/A   Mostly Cloudy
3:15 PM 46.4 °F 37.0 °F 32.0 °F 57% 29.83 in 6.2 mi NNW 31.3 mph 47.0 mph N/A   Overcast
3:45 PM 46.4 °F 37.0 °F 32.0 °F 57% 29.83 in 6.2 mi NNW 31.3 mph 44.7 mph N/A   Mostly Cloudy
4:15 PM 44.6 °F 34.5 °F 30.2 °F 57% 29.86 in - NNW 31.3 mph - N/A   Clear
4:45 PM 42.8 °F 32.8 °F 28.4 °F 57% 29.86 in - NNW 26.8 mph 38.0 mph N/A   Clear
5:15 PM 42.8 °F 32.8 °F 28.4 °F 57% 29.86 in - NNW 26.8 mph 38.0 mph N/A   Clear
5:45 PM - - - N/A% - - NNW 17.9 mph 29.1 mph N/A   Clear
6:15 PM 41.0 °F 30.8 °F 26.6 °F 57% 29.89 in - North 24.6 mph 38.0 mph N/A   Clear
6:45 PM 41.0 °F 32.3 °F 28.4 °F 61% 29.89 in - North 17.9 mph - N/A   Clear
7:15 PM 39.2 °F 29.4 °F 26.6 °F 61% 29.89 in - NNW 20.1 mph - N/A   Clear
7:45 PM 39.2 °F 28.9 °F 26.6 °F 61% 29.92 in - NNW 22.4 mph - N/A   Clear
8:15 PM 37.4 °F 27.0 °F 26.6 °F 65% 29.92 in - NNW 20.1 mph 31.3 mph N/A   Clear
8:45 PM - - - N/A% - - NNW 17.9 mph 29.1 mph N/A   Clear
9:15 PM 35.6 °F 24.7 °F 24.8 °F 65% 29.92 in - North 20.1 mph - N/A   Clear
9:45 PM 35.6 °F 24.1 °F 24.8 °F 65% 29.92 in - North 22.4 mph - N/A   Clear
10:15 PM 35.6 °F 24.1 °F 24.8 °F 65% 29.92 in - North 22.4 mph - N/A   Clear
10:45 PM 35.6 °F 23.6 °F 24.8 °F 65% 29.92 in - North 24.6 mph - N/A   Clear
11:15 PM 35.6 °F 23.1 °F 24.8 °F 65% 29.92 in - North 26.8 mph - N/A   Clear
11:45 PM - - - N/A% - 1.4 mi North - - N/A   Unknown